Lid_Strength_Index
8 8 7 3 2 2 1 1 1 1 0 -0 -0 -0 -0 -0 -0 -0 -0 -0 1 -0 -0 -0 -0 -1 -0 -0 -0 -0 -0 -0
8 8 8 7 2 2 2 2 1 1 0 0 0 0 0 0 0 -0 -0 0 1 1 0 -0 -0 -0 -0 -0 -0 -0 -0 -1
8 7 7 7 7 4 1 2 2 1 1 0 0 0 1 0 0 -0 -0 0 1 1 -0 -0 -0 -0 -0 -0 -0 -0 -0 0
8 8 7 7 7 2 1 2 2 2 2 0 1 0 0 0 -0 -0 -0 0 1 0 0 0 0 -0 -0 -0 0 0 0 1
8 7 7 7 7 6 1 1 2 2 2 1 1 1 -0 0 -0 -0 0 -0 0 0 1 1 0 -0 -0 -0 0 0 1 1
8 7 7 7 7 7 6 1 1 2 2 2 2 1 0 0 0 0 -0 -0 0 1 1 1 -0 0 -0 0 1 1 1 1
7 7 7 7 7 7 6 1 1 1 2 1 2 2 2 1 2 1 1 0 -0 0 1 1 0 0 0 1 1 1 2 1
6 6 6 5 6 6 5 3 1 1 2 3 2 2 2 2 1 2 1 1 0 1 1 1 1 1 1 1 1 1 1 1
4 4 4 4 5 5 5 4 2 2 3 3 3 2 2 2 1 1 1 1 1 1 2 1 1 1 1 1 1 1 2 1
4 4 4 4 5 6 5 4 3 1 2 3 2 2 2 2 2 1 1 1 1 1 1 1 1 1 1 1 1 2 2 2
5 5 5 4 4 5 5 4 3 1 2 3 3 2 1 2 2 2 0 0 0 0 0 1 1 1 2 2 1 2 3 3
5 5 5 5 3 5 5 4 3 1 1 2 3 3 3 2 2 1 1 0 0 0 0 0 1 1 2 2 1 1 2 4
6 5 5 4 4 4 3 2 1 1 1 2 3 3 2 1 1 1 1 0 0 0 0 0 1 1 1 1 1 1 2 3
5 4 5 5 4 4 3 3 3 2 2 2 4 4 2 2 2 2 2 1 1 0 0 1 1 1 1 1 1 1 3 4
5 5 5 5 5 5 4 5 4 2 2 2 2 2 2 2 2 2 2 2 1 1 1 1 1 2 2 2 2 4 4 5
5 5 5 5 5 5 5 5 5 3 4 3 1 1 2 2 1 2 2 2 1 1 1 1 1 3 5 5 5 5 6 7
5 4 4 5 4 5 5 5 4 4 3 3 2 2 1 2 2 2 2 1 1 1 1 1 3 5 5 5 6 7 7 7
5 4 4 4 4 4 4 4 4 4 3 3 2 2 2 1 2 2 2 1 1 1 1 3 5 5 6 7 8 8 8 8
5 4 3 3 3 4 4 4 3 3 2 2 2 2 2 2 2 2 1 1 2 2 4 5 5 6 6 8 8 9 9 9
5 4 4 3 4 4 5 4 4 3 2 2 2 1 1 2 2 2 2 2 3 3 4 5 5 6 7 8 8 8 9 10